Regional Weather Roundup
Issued by NWS Little Rock, AR

Home | Current Version | Previous Version | Graphics & Text | Print | Product List | Glossary On
Versions: 1 2 3 4 5 6 7 8 9 10 11 12 13 14 15 16 17 18 19 20 21 22 23 24 25 26 27 28 29 30 31 32 33 34 35 36 37 38 39 40 41 42 43 44 45 46 47 48 49 50
000
ASUS44 KLZK 181705
RWRLZK

WEATHER ROUNDUP FOR ARKANSAS
NATIONAL WEATHER SERVICE LITTLE ROCK AR
1100 AM CST WED JAN 18 2017

NOTE: "FAIR" INDICATES FEW OR NO CLOUDS BELOW 12,000 FEET WITH NO
SIGNIFICANT WEATHER AND/OR OBSTRUCTIONS TO VISIBILITY.

ARZ001-003-010-029-181800-
NORTHWEST ARKANSAS

CITY           SKY/WX    TMP DP  RH WIND       PRES   REMARKS
FAYETTEVILLE   CLOUDY    44  40  85 N3        30.15F
FORT SMITH     CLOUDY    45  41  86 E8        30.17F
HARRISON       CLOUDY    39  39 100 SE7       30.19S FOG
BENTONVILLE    CLOUDY   N/A N/A N/A NE3       30.16F
ROGERS         CLOUDY    43  39  86 E8        30.16F
SILOAM SPGS    CLOUDY    45  37  76 E3        30.15S
HIGHFILL       CLOUDY    45  40  82 E6        30.15F
SPRINGDALE     CLOUDY    45  41  87 E8        30.16F
$$

ARZ004-005-016-181800-
NORTH CENTRAL ARKANSAS

CITY           SKY/WX    TMP DP  RH WIND       PRES   REMARKS
BATESVILLE     CLOUDY    45  39  81 E8        30.24F
FLIPPIN        CLOUDY    41  34  75 E5        30.19F
MTN HOME       CLOUDY    40  38  93 SE6       30.20F
$$

ARZ040-041-181800-
WEST CENTRAL ARKANSAS

CITY           SKY/WX    TMP DP  RH WIND       PRES   REMARKS
MENA           CLOUDY    46  46 100 E7        30.16R
MOUNT IDA      CLOUDY    47  45  93 VRB3      30.15R
$$

ARZ009-017-025-026-028-181800-
NORTHEAST ARKANSAS

CITY           SKY/WX    TMP DP  RH WIND       PRES   REMARKS
CORNING        CLOUDY    43  41  93 NE7       30.25F
JONESBORO      CLOUDY    45  41  86 E8        30.23F
NEWPORT        CLOUDY    45  41  86 MISG        N/A
WALNUT RIDGE   CLOUDY    45  37  76 NE9       30.23F
BLYTHEVILLE    CLOUDY    46  42  86 NE5       30.24F
NW BLYTHEVILLE CLOUDY    45  41  87 E3        30.24F
$$

ARZ022-023-033-042-044-181800-
CENTRAL ARKANSAS

CITY           SKY/WX    TMP DP  RH WIND       PRES   REMARKS
LITTLE ROCK    CLOUDY    45  45 100 E8        30.21F
JACKSONVILLE   CLOUDY    46  42  85 NE8       30.19F
SEARCY         PTSUNNY   46  42  86 NE10      30.24F
HOT SPRINGS    LGT RAIN  47  45  93 E6        30.18S
RUSSELLVILLE   CLOUDY    45  41  86 CALM      30.20R
CLINTON        CLOUDY    45  41  87 CALM      30.21F
$$

ARZ036-181800-
EAST ARKANSAS

CITY           SKY/WX    TMP DP  RH WIND       PRES   REMARKS
WEST MEMPHIS   CLOUDY    48  43  82 NE5       30.21F
$$

ARZ050-053-066-070-073-181800-
SOUTHWEST ARKANSAS

CITY           SKY/WX    TMP DP  RH WIND       PRES   REMARKS
ARKADELPHIA    CLOUDY    48  47  96 N7        30.18R
CAMDEN         LGT RAIN  50  46  87 NE7       30.15F
TEXARKANA      CLOUDY    51  51 100 E6        30.13S
EL DORADO      RAIN      50  49  96 E14       30.15F FOG
DE QUEEN       CLOUDY    49  49 100 N6        30.14R FOG
$$

ARZ056-057-069-181800-
SOUTHEAST ARKANSAS

CITY           SKY/WX    TMP DP  RH WIND       PRES   REMARKS
PINE BLUFF     CLOUDY    48  46  93 NE12      30.18F
STUTTGART      CLOUDY    46  39  76 NE9       30.21F
MONTICELLO     HVY RAIN  50  48  93 E7        30.17F FOG

$$





USA.gov is the U.S. government's official web portal to all federal, state and local government web resources and services.